OE3MHU-12 Weather Reports


Display with metric or nautical units.
time (UTC)temp
F
wind
direction
speed
MPH
gust
MPH
rain 1hr
in
rain 24hr
in
rain mn
in
humidity
%
barometer
mb
20260504032542 44 79 0.0 0.0 0.00 0.00 0.00 78 1012.7
20260504025542 45 79 0.0 0.0 0.00 0.00 0.00 77 1012.8
20260504022542 46 79 0.0 0.0 0.00 0.00 0.00 76 1012.6
20260504015542 47 79 0.0 0.0 0.00 0.00 0.00 75 1012.6
20260504012542 47 79 0.0 0.0 0.00 0.00 0.00 73 1012.6
20260504005542 49 79 0.0 0.0 0.00 0.00 0.00 71 1012.6
20260504002542 52 79 0.0 1.0 0.00 0.00 0.00 67 1012.6
20260503235542 53 79 1.0 3.0 0.00 0.00 0.00 66 1012.4
20260503232542 53 79 0.0 2.0 0.00 0.00 0.00 66 1012.5
20260503225542 55 79 0.0 0.0 0.00 0.00 0.00 63 1012.8
20260503222542 56 79 0.0 1.0 0.00 0.00 0.00 60 1012.7
20260503215546 59 80 0.0 2.0 0.00 0.00 0.00 56 1012.6
20260503215543 59 80 0.0 2.0 0.00 0.00 0.00 56 1012.6
20260503212543 60 77 0.0 4.0 0.00 0.00 0.00 55 1012.7
20260503205543 61 120 1.0 3.0 0.00 0.00 0.00 54 1012.8
20260503202543 62 142 3.0 6.0 0.00 0.00 0.00 52 1012.9
20260503195543 63 144 4.0 9.0 0.00 0.00 0.00 49 1013.0
20260503192543 65 123 5.0 12.0 0.00 0.00 0.00 47 1013.0
20260503185543 66 110 5.0 12.0 0.00 0.00 0.00 46 1013.0
20260503182543 67 103 4.0 9.0 0.00 0.00 0.00 45 1012.8
20260503175543 69 92 3.0 9.0 0.00 0.00 0.00 44 1012.8
20260503172543 71 105 4.0 8.0 0.00 0.00 0.00 41 1012.8
20260503072545 64 122 2.0 6.0 0.00 0.00 0.00 51 1017.5
20260503052545 40 139 0.0 0.0 0.00 0.00 0.00 82 1017.5
20260503045546 37 139 0.0 0.0 0.00 0.00 0.00 83 1017.6
20260503042546 35 139 0.0 0.0 0.00 0.00 0.00 82 1017.6